Location: Houhaj�rvi
(61.2833°N, 23.0000°E)
Time: 09:43:42
(UTC+00:00)

USA 234 - Pass Details

Date: 27 February 2020
Orbit: 1101 x 1107 km, 123.0° (Epoch: 29 March)

Event Time Altitude Azimuth Distance (km) Brightness Sun altitude
Exits shadow 20:42:40 31° 237° (WSW) 1,834 4.4 -32.7°
Drops below altitude 10° 20:47:17 10° 280° (W) 2,967 6.0 -33.0°
Sets 20:50:05 0° 290° (WNW) 3,928 6.9 -33.2°
